Latest Coastal Weather Observations for Legendre Island

IDW60701

Issued at 2:22 am WST Tuesday 31 May 2016 (issued every 10 minutes, with the page automatically refreshed every 10 minutes)

About coastal observations | Map of coastal stations | Coastal observations for WA | Marine services | Other Formats
Station Details ID: 004095 Name: LEGENDRE ISLAND Lat: -20.36 Lon: 116.84 Height: 29.0 m
Data from the previous 72 hours. | See also: Recent months at Legendre Island
Date/Time
WST
Temp

°C
Wind Pressure Rain
since 9am
mm
Weather Cloud Vis
km
Sea
Height
m
Swell
Dir
 
Speed
knots
Gust
knots
hPa Trend Height
m
Period
s
Dir
31/02:00am 22.9 SW 16 19 1013.4 - - - - - - - - -
31/01:30am 23.1 SW 17 20 1013.5 - - - - - - - - -
31/01:00am 23.4 SW 17 21 1013.3 - - - - - - - - -
31/12:30am 23.6 SW 16 20 1013.7 - - - - - - - - -
31/12:00am 23.9 SW 16 19 1013.8 - - - - - - - - -
 
Date/Time
WST
Temp

°C
Wind Pressure Rain
since 9am
mm
Weather Cloud Vis
km
Sea
Height
m
Swell
Dir
 
Speed
knots
Gust
knots
hPa Trend Height
m
Period
s
Dir
30/11:30pm 24.2 WSW 14 17 1014.1 - - - - - - - - -
30/11:00pm 24.1 SW 15 18 1014.1 - - - - - - - - -
30/10:30pm 24.1 WSW 13 16 1014.2 - - - - - - - - -
30/10:00pm 24.1 WSW 12 14 1014.2 - - - - - - - - -
30/09:30pm 24.5 WSW 11 13 1014.2 - - - - - - - - -
30/09:00pm 24.5 WSW 11 14 1014.3 - - - - - - - - -
30/08:30pm 25.0 WSW 12 15 1014.1 - - - - - - - - -
30/08:00pm 25.2 WSW 10 12 1013.6 - - - - - - - - -
30/07:30pm 25.3 WSW 9 11 1013.2 - - - - - - - - -
30/07:00pm 25.3 WSW 10 12 1013.2 - - - - - - - - -
30/06:30pm 25.1 WSW 10 12 1012.9 - - - - - - - - -
30/06:00pm 25.1 WSW 11 13 1012.6 - - - - - - - - -
30/05:30pm 25.3 WSW 11 13 1012.5 - - - - - - - - -
30/05:00pm 25.7 W 10 12 1012.2 - - - - - - - - -
30/04:30pm 26.9 WSW 11 13 1012.0 - - - - - - - - -
30/04:00pm 27.1 WSW 10 11 1011.6 - - - - - - - - -
30/03:30pm 27.8 WSW 10 12 1011.3 - - - - - - - - -
30/03:00pm 28.0 WSW 10 13 1011.4 - - - - - - - - -
30/02:30pm 27.5 WSW 11 13 1011.6 - - - - - - - - -
30/02:00pm 28.1 WSW 10 12 1011.4 - - - - - - - - -
30/01:30pm 28.4 WSW 8 10 1011.4 - - - - - - - - -
30/01:00pm 27.6 WSW 8 10 1011.6 - - - - - - - - -
30/12:30pm 27.6 WSW 9 11 1012.2 - - - - - - - - -
30/12:00pm 27.6 WSW 11 13 1012.5 - - - - - - - - -
30/11:30am 27.9 WSW 9 11 1012.9 - - - - - - - - -
30/11:00am 27.2 WSW 8 9 1013.0 - - - - - - - - -
30/10:30am 27.4 WSW 7 9 1013.0 - - - - - - - - -
30/10:00am 26.4 SW 8 9 1013.3 - - - - - - - - -
30/09:30am 26.6 SW 7 8 1013.4 - - - - - - - - -
30/09:00am 26.5 SW 7 8 1013.3 - - - - - - - - -
30/08:30am 25.8 SW 7 8 1012.9 - - - - - - - - -
30/08:00am 25.1 SSW 7 8 1012.7 - - - - - - - - -
30/07:30am 24.0 SW 8 9 1012.5 - - - - - - - - -
30/07:00am 22.8 SW 8 9 1012.2 - - - - - - - - -
30/06:30am 22.5 SW 7 9 1011.9 - - - - - - - - -
30/06:00am 22.9 WSW 8 9 1011.9 - - - - - - - - -
30/05:30am 22.9 WSW 8 9 1011.6 - - - - - - - - -
30/05:00am 22.8 SW 7 8 1011.5 - - - - - - - - -
30/04:30am 22.7 WSW 7 9 1011.5 - - - - - - - - -
30/04:00am 23.3 WSW 8 9 1011.5 - - - - - - - - -
30/03:30am 23.4 SW 8 10 1011.5 - - - - - - - - -
30/03:00am 23.8 SW 10 12 1011.7 - - - - - - - - -
30/02:30am 24.4 SW 12 14 1011.8 - - - - - - - - -
30/02:00am 24.4 WSW 11 13 1012.0 - - - - - - - - -
30/01:30am 24.6 WSW 13 15 1012.1 - - - - - - - - -
30/01:00am 24.5 WSW 14 17 1012.3 - - - - - - - - -
30/12:30am 24.0 WSW 12 15 1012.4 - - - - - - - - -
30/12:00am 24.4 WSW 12 15 1012.6 - - - - - - - - -
 
Date/Time
WST
Temp

°C
Wind Pressure Rain
since 9am
mm
Weather Cloud Vis
km
Sea
Height
m
Swell
Dir
 
Speed
knots
Gust
knots
hPa Trend Height
m
Period
s
Dir
29/11:30pm 24.5 SW 12 15 1012.8 - - - - - - - - -
29/11:00pm 24.7 WSW 12 15 1013.3 - - - - - - - - -
29/10:30pm 24.9 WSW 13 16 1013.4 - - - - - - - - -
29/10:00pm 24.7 WSW 13 15 1013.4 - - - - - - - - -
29/09:30pm 24.7 W 12 14 1013.4 - - - - - - - - -
29/09:00pm 24.6 W 10 13 1013.4 - - - - - - - - -
29/08:30pm 24.6 W 11 14 1013.2 - - - - - - - - -
29/08:00pm 24.6 W 11 13 1012.9 - - - - - - - - -
29/07:30pm 24.4 W 10 12 1012.7 - - - - - - - - -
29/07:00pm 24.5 W 10 13 1012.6 - - - - - - - - -
29/06:30pm 24.7 W 10 12 1012.2 - - - - - - - - -
29/06:00pm 24.8 WNW 9 11 1011.9 - - - - - - - - -
29/05:30pm 25.7 WNW 10 12 1011.9 - - - - - - - - -
29/05:00pm 26.7 WNW 9 11 1011.8 - - - - - - - - -
29/04:30pm 27.7 W 9 11 1011.6 - - - - - - - - -
29/04:00pm 28.0 WNW 9 11 1011.4 - - - - - - - - -
29/03:30pm 28.3 WNW 7 9 1011.2 - - - - - - - - -
29/03:00pm 28.8 W 8 10 1011.3 - - - - - - - - -
29/02:30pm 28.3 W 8 10 1011.2 - - - - - - - - -
29/02:00pm 28.8 W 9 11 1011.2 - - - - - - - - -
29/01:30pm 28.8 W 8 10 1011.3 - - - - - - - - -
29/01:00pm 28.9 W 7 9 1011.5 - - - - - - - - -
29/12:30pm 28.6 WNW 7 9 1012.2 - - - - - - - - -
29/12:00pm 29.0 NW 5 8 1012.7 - - - - - - - - -
29/11:30am 28.5 W 5 7 1013.1 - - - - - - - - -
29/11:00am 29.1 NNW 4 6 1013.4 - - - - - - - - -
29/10:30am 28.7 NW 4 8 1013.6 - - - - - - - - -
29/10:00am 28.8 SW 1 3 1013.8 - - - - - - - - -
29/09:30am 27.1 SW 5 7 1014.0 - - - - - - - - -
29/09:00am 26.4 SSW 4 5 1013.7 - - - - - - - - -
29/08:30am 25.9 SW 6 7 1013.4 - - - - - - - - -
29/08:00am 25.3 SW 5 5 1013.1 - - - - - - - - -
29/07:30am 24.0 SSW 5 6 1012.9 - - - - - - - - -
29/07:00am 22.8 SSW 8 9 1012.7 - - - - - - - - -
29/06:30am 22.5 SW 8 8 1012.3 - - - - - - - - -
29/06:00am 22.9 SW 9 10 1012.0 - - - - - - - - -
29/05:30am 22.7 SW 8 9 1012.0 - - - - - - - - -
29/05:00am 23.4 SW 9 11 1012.1 - - - - - - - - -
29/04:30am 23.7 SW 11 13 1012.1 - - - - - - - - -
29/04:00am 23.9 SW 11 13 1011.8 - - - - - - - - -
29/03:30am 24.3 SW 13 14 1011.8 - - - - - - - - -
29/03:00am 24.3 SW 12 14 1011.7 - - - - - - - - -
29/02:30am 24.5 SW 13 14 1011.7 - - - - - - - - -
29/02:00am 24.5 SW 12 15 1011.9 - - - - - - - - -
29/01:30am 24.6 SW 12 14 1011.9 - - - - - - - - -
29/01:00am 25.1 SW 13 16 1012.2 - - - - - - - - -
29/12:30am 25.4 SW 13 16 1012.3 - - - - - - - - -
29/12:00am 25.5 WSW 13 15 1012.6 - - - - - - - - -
 
Date/Time
WST
Temp

°C
Wind Pressure Rain
since 9am
mm
Weather Cloud Vis
km
Sea
Height
m
Swell
Dir
 
Speed
knots
Gust
knots
hPa Trend Height
m
Period
s
Dir
28/11:30pm 25.6 WSW 14 17 1012.7 - - - - - - - - -
28/11:00pm 25.6 WSW 11 14 1013.1 - - - - - - - - -
28/10:30pm 25.6 WSW 12 14 1013.1 - - - - - - - - -
28/10:00pm 25.4 WSW 10 13 1013.2 - - - - - - - - -
28/09:30pm 25.2 W 10 11 1013.3 - - - - - - - - -
28/09:00pm 25.1 W 8 11 1013.3 - - - - - - - - -
28/08:30pm 25.2 W 10 12 1013.4 - - - - - - - - -
28/08:00pm 25.2 WSW 10 13 1013.1 - - - - - - - - -
28/07:30pm 25.4 W 11 12 1012.9 - - - - - - - - -
28/07:00pm 25.4 W 10 12 1012.7 - - - - - - - - -
28/06:30pm 25.6 WNW 9 11 1012.4 - - - - - - - - -
28/06:00pm 25.5 WNW 8 9 1012.0 - - - - - - - - -
28/05:30pm 25.9 W 8 10 1011.7 - - - - - - - - -
28/05:00pm 26.7 W 9 10 1011.6 - - - - - - - - -
28/04:30pm 27.4 W 9 11 1011.5 - - - - - - - - -
28/04:00pm 27.9 W 9 11 1011.5 - - - - - - - - -
28/03:30pm 28.1 WNW 8 11 1011.3 - - - - - - - - -
28/03:00pm 28.4 WNW 9 11 1011.4 - - - - - - - - -
28/02:30pm 28.4 WNW 8 11 1011.6 - - - - - - - - -
28/02:00pm 28.1 NW 8 10 1011.8 - - - - - - - - -
28/01:30pm 28.1 NNW 7 9 1012.2 - - - - - - - - -
28/01:00pm 27.9 NNW 7 8 1012.4 - - - - - - - - -
28/12:30pm 28.0 N 6 7 1012.8 - - - - - - - - -
28/12:00pm 28.0 N 5 7 1013.2 - - - - - - - - -
28/11:30am 27.9 N 5 6 1013.5 - - - - - - - - -
28/11:00am 27.3 N 5 6 1014.0 - - - - - - - - -
28/10:30am 27.6 N 4 5 1014.6 - - - - - - - - -
28/10:00am 27.3 NNE 3 4 1014.8 - - - - - - - - -
28/09:30am 27.3 N 3 4 1014.9 - - - - - - - - -
28/09:00am 26.6 N 3 4 1015.2 - - - - - - - - -
28/08:30am 26.5 NE 1 2 1015.0 - - - - - - - - -
28/08:00am 25.6 SE 1 2 1014.9 - - - - - - - - -
28/07:30am 24.6 CALM 0 0 1014.8 - - - - - - - - -
28/07:00am 23.2 SSW 4 5 1014.6 - - - - - - - - -
28/06:30am 23.1 S 6 7 1014.4 - - - - - - - - -
28/06:00am 23.2 S 5 6 1014.2 - - - - - - - - -
28/05:30am 23.6 S 6 6 1014.2 - - - - - - - - -
28/05:00am 23.8 S 7 8 1014.0 - - - - - - - - -
28/04:30am 24.0 S 8 9 1014.1 - - - - - - - - -
28/04:00am 24.2 S 8 9 1014.1 - - - - - - - - -
28/03:30am 24.5 S 8 9 1014.1 - - - - - - - - -
28/03:00am 24.6 S 4 5 1014.3 - - - - - - - - -
28/02:30am 24.7 SW 6 7 1014.4 - - - - - - - - -

Other Formats:

Comma delimited format used in spreadsheet applications
http://www.bom.gov.au/fwo/IDW60701/IDW60701.94307.axf

JavaScript Object Notation format (JSON) in row-major order
http://www.bom.gov.au/fwo/IDW60701/IDW60701.94307.json